Regional Weather Roundup
Issued by NWS

Home | Current Version | Previous Version | Graphics & Text | Print | Product List | Glossary On
Versions: 1 2 3 4 5 6 7 8 9 10 11 12 13 14 15 16 17 18 19 20 21 22 23 24 25 26 27 28 29 30 31 32 33 34 35 36 37 38 39 40 41 42 43 44 45 46 47 48 49 50
000
ASUS45 KSLC 171210
RWRUT

UTAH REGIONAL WEATHER ROUNDUP
NATIONAL WEATHER SERVICE SALT LAKE CITY UT
500 AM MST TUE JAN 17 2017

UTZ001>011-023>025-171300-

NORTHERN UTAH

CITY           SKY/WX    TMP DP  RH WIND       PRES   REMARKS
BRIGHAM CITY     N/A      8   2  79 NW5       30.30S WCI  -1
HILL AFB       MOCLDY    12   3  67 SE16      30.25F WCI  -4
LOGAN          PTCLDY     1  -1  91 CALM      30.30F FOG
OGDEN          PTCLDY    11   5  77 S9        30.26F WCI  -2
SALT LAKE CITY PTCLDY    20  16  84 N3        30.28S
TOOELE VALLEY  PTCLDY    19  18  93 S6        30.28F WCI  11
WENDOVER       CLOUDY    25  19  80 S6        30.28S WCI  18
HEBER CITY     HAZE      -9 -15  77 CALM      30.22F VSB 1/4
WEST JORDAN    PTCLDY    17  17 100 CALM      30.27S

$$

UTZ011>015-024>027-171300-

CENTRAL/NORTHEAST UTAH

CITY           SKY/WX    TMP DP  RH WIND       PRES   REMARKS
PROVO AIRPORT  PTCLDY    18  13  80 SE5       30.28F WCI  11
MOAB/CANYONLAN CLEAR     28  21  75 CALM      30.16R
DELTA          CLEAR     18  14  86 N3        30.23F
PRICE          PTCLDY     7   1  76 N3        30.12F
RICHFIELD      CLOUDY    23  21  93 CALM      30.25F
ROOSEVELT      FOG       18  14  86 CALM      30.27F VSB 1/2
VERNAL         CLOUDY    17  14  88 CALM      30.25S

$$

UTZ013>016-019>022-027-171300-

SOUTHERN UTAH

CITY           SKY/WX    TMP DP  RH WIND       PRES   REMARKS
BRYCE CANYON   CLOUDY     7   4  87 N7        30.13R WCI  -5
CEDAR CITY     CLEAR     17  13  84 CALM      30.17F
MILFORD        CLEAR     17  14  88 NW3       30.21F
ST GEORGE      MOSUNNY   34  21  60 NW3       30.20S
HANKSVILLE     CLEAR     27  23  86 MISG      30.20R
KANAB          CLEAR     30  19  64 N16       30.16S WCI  19
BLANDING       CLOUDY    33  27  79 CALM      30.18S

$$

REGIONAL REPORTS     COLORADO/ARIZONA

CITY           SKY/WX    TMP DP  RH WIND       PRES   REMARKS
CRAIG, CO      CLOUDY    14  11  87 W3        30.20S FOG
GRAND JUNCTION CLOUDY    27  20  75 NW5       30.16S WCI  22
RIFLE, CO      CLOUDY    19  16  88 SE3       30.19S
MONTROSE, CO   CLOUDY    31  27  85 NW3       30.16F
CORTEZ, CO     FLURRIES  33  31  92 CALM      30.12R
COLORADO CITY    N/A     21  19  93 CALM      30.15S
PAGE, AZ       PTCLDY    33  25  72 CALM      30.12S
GRAND CANYON   CLEAR     23  22  96 NE3       30.09S
KINGMAN, AZ    CLEAR     33  20  58 E7        30.09F WCI  27
FLAGSTAFF, AZ  CLOUDY    25  23  92 E3        30.06F

$$

REGIONAL REPORTS    NEVADA/IDAHO/WYOMING

CITY           SKY/WX    TMP DP  RH WIND       PRES   REMARKS
LAS VEGAS, NV  CLEAR     38  23  55 S5        30.13S WCI  34
ELY, NY        CLOUDY     2  -2  83 S9        30.19F FOG     WCI -13
ELKO, NV       CLOUDY    16  12  84 N7        30.25S WCI   6
POCATELLO, ID  CLOUDY    -2  -6  83 NE3       30.28F
BURLEY, ID     CLEAR      6   1  80 NE9       30.25S WCI  -8
FORT BRIDGER,    N/A      3   0  88 W9        30.14S WCI -12
EVANSTON, WY   CLOUDY     7   1  76 CALM      30.13S
ROCK SPRINGS,  CLOUDY    -5 -11  75 NW3       30.13F HAZE
KEMMERER, WY     N/A    N/A N/A N/A CALM      30.11F

$$



USA.gov is the U.S. government's official web portal to all federal, state and local government web resources and services.